Content
SEND FEEDBACK

Daily
Averages
Monthly
Summary
China

XIAMEN, CHINA


Home > Asia > China
Elevation: 456 feet     Latitude: 24 28N     Longitude: 118 04E

WEATHER
 
SELECT A DAY
Number of Records: 166,404;   Date Range: 7/1/96 - 8/31/14
 
SHARE

PRINT THIS DATA

[ ← Previous Day ]
WEATHER ALMANAC - JANUARY 31, 2013
[ Next Day → ]
[ °C ]   °F
Weather ElementAverageHighLow
Temperature61.3 °F71.6 °F (2:00 pm)53.6 °F (2:00 am)
Dewpoint49.6 °F53.6 °F (6:00 pm)45 °F (5:00 am)
Humidity65.2 %88 % (2:00 am)33 % (2:00 pm)
Barometer30.21 in30.29 in (8:00 am)30.12 in (3:00 pm)
Wind Speed4.1 mph8.9 mph (4:00 pm)
Weather ElementAverage
Visibility5.5 mi
Wind DirectionSSE (147.6 °)

Weather ElementTotal
Precipitation---
Heating Degree Days2.4 (Base 65)
Growing Degree Days12.6 (Base 50)
Averaged from 29 records on January 31, 2013
WEATHER CONDITIONS BREAKOUT
WIND DIRECTION BREAKOUT
WEATHER BY HOUR - JANUARY 31, 2013
[ °C ]   °F
Local TimeTemperatureDewpointHumidityBarometerVisibilityWind DirectionWind SpeedGust SpeedPrecipitationEventsConditions
1:00 AM55.4 °F48.2 °F77 %30.24 in5.0 miNorth (350°)2.2 mph
2:00 AM55.0 °F48.0 °F70 %30.26 in7.0 miNorth6.7 mphClear
2:00 AM53.6 °F50.0 °F88 %30.24 in4.3 miVariable2.2 mph
3:00 AM53.6 °F48.2 °F82 %30.21 in4.3 miVariable2.2 mph
4:00 AM55.4 °F50.0 °F82 %30.21 in4.3 miWNW (290°)4.5 mphPartly Cloudy
5:00 AM54.0 °F45.0 °F63 %30.25 in7.0 miNNW (340°)6.7 mphScattered Clouds
5:00 AM53.6 °F48.2 °F82 %30.21 in4.3 miWest (260°)2.2 mph
6:00 AM55.4 °F50.0 °F82 %30.24 in4.3 miWest (280°)2.2 mph
7:00 AM53.6 °F50.0 °F88 %30.24 in4.3 miVariable2.2 mph
8:00 AM55.0 °F48.0 °F70 %30.29 in7.0 miWSW (250°)2.2 mphScattered Clouds
8:00 AM57.2 °F51.8 °F82 %30.24 in4.3 miWNW (290°)2.2 mph
9:00 AM60.8 °F50.0 °F68 %30.27 in5.0 miWest (280°)4.5 mph
10:00 AM64.4 °F48.2 °F56 %30.27 in5.6 miWSW (240°)4.5 mph
11:00 AM66.2 °F48.2 °F52 %30.24 in5.6 miNW (320°)4.5 mph
11:00 AM65.0 °F47.0 °F41 %30.28 in6.0 miWNW (290°)4.5 mphHaze
12:00 PM69.8 °F48.2 °F46 %30.21 inNNE (30°)4.5 mphClear
1:00 PM69.8 °F48.2 °F46 %30.18 inVariable4.5 mphClear
2:00 PM71.0 °F48.0 °F33 %30.18 in8.0 miSouth (180°)2.2 mphMostly Cloudy
2:00 PM71.6 °F50.0 °F46 %30.15 inVariable4.5 mphClear
3:00 PM71.6 °F50.0 °F46 %30.12 inEast (100°)6.7 mphClear
4:00 PM69.8 °F51.8 °F53 %30.12 inESE (110°)8.9 mphClear
5:00 PM66.2 °F51.8 °F60 %30.15 inESE (110°)6.7 mphClear
6:00 PM64.4 °F53.6 °F68 %30.15 inEast (90°)4.5 mphClear
7:00 PM62.6 °F51.8 °F68 %30.15 inESE (120°)6.7 mphClear
8:00 PM62.6 °F51.8 °F68 %30.18 inSE (130°)4.5 mphClear
9:00 PM60.8 °F51.8 °F72 %30.18 inSE (130°)4.5 mphClear
10:00 PM60.8 °F50.0 °F68 %30.18 inVariable2.2 mphClear
11:00 PM58.0 °F50.0 °F67 %30.22 in7.0 miEast (90°)2.2 mphMostly Cloudy
11:00 PM60.8 °F50.0 °F68 %30.18 inVariable2.2 mphClear
Hourly data recorded from ZSAM, located miles away from Xiamen, China







STORIES FROM OUR PARTNERS